When you browse on this site, cookies collect data to enhance your experience and personalize the content and advertising you see.
Visit our Privacy Policy to learn more. By continuing to use the site, you agree to this use of cookies and data.
  • In Deutschland
  • Länderverzeichnis
  • Für 7 Tage
  • Wassertemperatur
  • Wetterkarte
  • Widgets
  • user-avatar
    Anmelden

    Stündliche Wetter Newcastle

    Heute, 15 Oktober, Dienstag

    Zeit Temperatur Niederschläge Wind Luftdruck Luftfeuchtigkeit
    00:00 +15°C° 0 mm 2 m/S 759 mmHg 93%
    01:00 +14°C° 0 mm 1 m/S 759 mmHg 94%
    02:00 +14°C° 0 mm 1 m/S 759 mmHg 94%
    03:00 +14°C° 0 mm 1 m/S 759 mmHg 94%
    04:00 +13°C° 0 mm 1 m/S 759 mmHg 94%
    05:00 +15°C° 0 mm 1 m/S 759 mmHg 90%
    06:00 +16°C° 0 mm 1 m/S 759 mmHg 87%
    07:00 +18°C° 0 mm 1 m/S 759 mmHg 83%
    08:00 +21°C° 0 mm 1 m/S 759 mmHg 72%
    09:00 +24°C° 0 mm 1 m/S 759 mmHg 60%
    10:00 +27°C° 0 mm 2 m/S 758 mmHg 48%
    11:00 +27°C° 0 mm 3 m/S 758 mmHg 47%
    12:00 +28°C° 0 mm 3 m/S 757 mmHg 46%
    13:00 +28°C° 0 mm 4 m/S 757 mmHg 44%
    14:00 +28°C° 0 mm 5 m/S 757 mmHg 49%
    15:00 +27°C° 0 mm 5 m/S 756 mmHg 53%
    16:00 +27°C° 0 mm 5 m/S 756 mmHg 57%
    17:00 +25°C° 0 mm 5 m/S 756 mmHg 64%
    18:00 +22°C° 0 mm 6 m/S 757 mmHg 72%
    19:00 +20°C° 0 mm 6 m/S 757 mmHg 80%
    20:00 +19°C° 0 mm 5 m/S 757 mmHg 85%
    21:00 +18°C° 0 mm 4 m/S 758 mmHg 89%
    22:00 +17°C° 0 mm 3 m/S 758 mmHg 94%
    23:00 +17°C° 0 mm 2 m/S 757 mmHg 95%

    Morgen, 16 Oktober, Mittwoch

    Zeit Temperatur Niederschläge Wind Luftdruck Luftfeuchtigkeit
    00:00 +16°C° 0 mm 2 m/S 757 mmHg 95%
    01:00 +16°C° 0 mm 2 m/S 757 mmHg 95%
    02:00 +16°C° 0 mm 2 m/S 757 mmHg 95%
    03:00 +16°C° 0 mm 2 m/S 757 mmHg 95%
    04:00 +15°C° 0 mm 2 m/S 757 mmHg 96%
    05:00 +17°C° 0 mm 2 m/S 757 mmHg 91%
    06:00 +18°C° 0 mm 3 m/S 758 mmHg 86%
    07:00 +19°C° 0 mm 3 m/S 758 mmHg 82%
    08:00 +21°C° 0 mm 3 m/S 758 mmHg 72%
    09:00 +25°C° 0 mm 3 m/S 758 mmHg 63%
    10:00 +27°C° 0 mm 3 m/S 757 mmHg 53%
    11:00 +28°C° 0 mm 2 m/S 757 mmHg 50%
    12:00 +29°C° 0 mm 2 m/S 756 mmHg 47%
    13:00 +29°C° 0 mm 2 m/S 756 mmHg 44%
    14:00 +27°C° 0 mm 3 m/S 755 mmHg 53%
    15:00 +26°C° 0 mm 4 m/S 754 mmHg 62%
    16:00 +23°C° 0 mm 5 m/S 754 mmHg 71%
    17:00 +22°C° 1.4 mm 4 m/S 755 mmHg 79%
    18:00 +20°C° 1.4 mm 4 m/S 756 mmHg 87%
    19:00 +19°C° 1.4 mm 4 m/S 756 mmHg 95%
    20:00 +19°C° 0.8 mm 3 m/S 757 mmHg 96%
    21:00 +18°C° 0.8 mm 2 m/S 757 mmHg 97%
    22:00 +19°C° 0.8 mm 1 m/S 757 mmHg 98%
    23:00 +19°C° 0.1 mm 1 m/S 756 mmHg 98%

    übermorgen, 17 Oktober, Donnerstag

    Zeit Temperatur Niederschläge Wind Luftdruck Luftfeuchtigkeit
    00:00 +18°C° 0.1 mm 1 m/S 755 mmHg 98%
    01:00 +18°C° 0.1 mm 1 m/S 755 mmHg 98%
    02:00 +18°C° 0 mm 1 m/S 754 mmHg 98%
    03:00 +18°C° 0 mm 1 m/S 754 mmHg 98%
    04:00 +16°C° 0 mm 1 m/S 753 mmHg 98%
    05:00 +18°C° 0 mm 1 m/S 754 mmHg 97%
    06:00 +19°C° 0 mm 1 m/S 754 mmHg 96%
    07:00 +18°C° 0 mm 2 m/S 755 mmHg 95%
    08:00 +20°C° 0 mm 2 m/S 754 mmHg 85%
    09:00 +22°C° 0 mm 3 m/S 754 mmHg 76%
    10:00 +25°C° 0 mm 4 m/S 754 mmHg 67%
    11:00 +27°C° 0 mm 5 m/S 754 mmHg 55%
    12:00 +29°C° 0 mm 6 m/S 754 mmHg 43%
    13:00 +30°C° 0 mm 7 m/S 754 mmHg 31%
    14:00 +29°C° 0 mm 7 m/S 754 mmHg 31%
    15:00 +28°C° 0 mm 7 m/S 754 mmHg 32%
    16:00 +27°C° 0 mm 6 m/S 754 mmHg 32%
    17:00 +23°C° 0 mm 6 m/S 755 mmHg 35%
    18:00 +21°C° 0 mm 6 m/S 756 mmHg 37%
    19:00 +19°C° 0 mm 6 m/S 757 mmHg 39%
    20:00 +16°C° 0 mm 6 m/S 758 mmHg 38%
    21:00 +15°C° 0 mm 6 m/S 759 mmHg 37%
    22:00 +14°C° 0 mm 6 m/S 760 mmHg 36%
    23:00 +13°C° 0 mm 6 m/S 761 mmHg 39%

    18 Oktober, Freitag

    Zeit Temperatur Niederschläge Wind Luftdruck Luftfeuchtigkeit
    00:00 +12°C° 0 mm 5 m/S 761 mmHg 43%
    01:00 +11°C° 0 mm 4 m/S 761 mmHg 46%
    02:00 +10°C° 0 mm 4 m/S 761 mmHg 48%
    03:00 +10°C° 0 mm 3 m/S 761 mmHg 50%
    04:00 +9°C° 0 mm 3 m/S 761 mmHg 52%
    05:00 +10°C° 0 mm 3 m/S 762 mmHg 51%
    06:00 +11°C° 0 mm 3 m/S 762 mmHg 50%
    07:00 +12°C° 0 mm 3 m/S 763 mmHg 49%
    08:00 +16°C° 0 mm 3 m/S 762 mmHg 44%
    09:00 +18°C° 0 mm 2 m/S 762 mmHg 39%
    10:00 +20°C° 0 mm 2 m/S 762 mmHg 34%
    11:00 +23°C° 0 mm 2 m/S 762 mmHg 31%
    12:00 +24°C° 0 mm 2 m/S 761 mmHg 29%
    13:00 +26°C° 0 mm 3 m/S 761 mmHg 26%
    14:00 +26°C° 0 mm 3 m/S 760 mmHg 27%
    15:00 +26°C° 0 mm 4 m/S 760 mmHg 28%
    16:00 +26°C° 0 mm 5 m/S 759 mmHg 29%
    17:00 +23°C° 0 mm 5 m/S 759 mmHg 33%
    18:00 +21°C° 0 mm 4 m/S 760 mmHg 36%
    19:00 +19°C° 0 mm 4 m/S 760 mmHg 40%
    20:00 +17°C° 0 mm 3 m/S 760 mmHg 43%
    21:00 +16°C° 0 mm 3 m/S 761 mmHg 47%
    22:00 +15°C° 0 mm 2 m/S 761 mmHg 50%
    23:00 +13°C° 0 mm 3 m/S 761 mmHg 50%

    19 Oktober, Samstag

    Zeit Temperatur Niederschläge Wind Luftdruck Luftfeuchtigkeit
    00:00 +13°C° 0 mm 3 m/S 760 mmHg 49%
    01:00 +12°C° 0 mm 3 m/S 760 mmHg 48%
    02:00 +12°C° 0 mm 3 m/S 760 mmHg 48%
    03:00 +11°C° 0 mm 4 m/S 760 mmHg 48%
    04:00 +11°C° 0 mm 4 m/S 760 mmHg 48%
    05:00 +13°C° 0 mm 4 m/S 760 mmHg 45%
    06:00 +14°C° 0 mm 5 m/S 760 mmHg 42%
    07:00 +15°C° 0 mm 5 m/S 761 mmHg 40%
    08:00 +19°C° 0 mm 5 m/S 761 mmHg 37%
    09:00 +21°C° 0 mm 4 m/S 760 mmHg 34%
    10:00 +25°C° 0 mm 4 m/S 760 mmHg 31%
    11:00 +26°C° 0 mm 4 m/S 760 mmHg 30%
    12:00 +27°C° 0 mm 5 m/S 759 mmHg 29%
    13:00 +28°C° 0 mm 5 m/S 759 mmHg 28%
    14:00 +27°C° 0 mm 5 m/S 759 mmHg 29%
    15:00 +27°C° 0 mm 5 m/S 759 mmHg 30%
    16:00 +27°C° 0 mm 5 m/S 759 mmHg 31%
    17:00 +23°C° 0 mm 4 m/S 760 mmHg 36%
    18:00 +21°C° 0 mm 4 m/S 761 mmHg 40%
    19:00 +18°C° 0 mm 3 m/S 761 mmHg 45%
    20:00 +17°C° 0 mm 4 m/S 762 mmHg 47%
    21:00 +15°C° 0 mm 4 m/S 763 mmHg 49%
    22:00 +13°C° 0 mm 5 m/S 764 mmHg 51%
    23:00 +12°C° 0 mm 5 m/S 764 mmHg 54%

    20 Oktober, Sonntag

    Zeit Temperatur Niederschläge Wind Luftdruck Luftfeuchtigkeit
    00:00 +10°C° 0 mm 5 m/S 764 mmHg 56%
    01:00 +9°C° 0 mm 5 m/S 764 mmHg 59%
    02:00 +10°C° 0 mm 4 m/S 765 mmHg 60%
    03:00 +8°C° 0 mm 4 m/S 765 mmHg 62%
    04:00 +9°C° 0 mm 3 m/S 765 mmHg 64%
    05:00 +10°C° 0 mm 3 m/S 765 mmHg 61%
    06:00 +11°C° 0 mm 3 m/S 766 mmHg 58%
    07:00 +13°C° 0 mm 3 m/S 766 mmHg 55%
    08:00 +16°C° 0 mm 3 m/S 766 mmHg 52%
    09:00 +17°C° 0 mm 3 m/S 766 mmHg 49%
    10:00 +19°C° 0 mm 3 m/S 766 mmHg 46%
    11:00 +19°C° 0 mm 3 m/S 766 mmHg 46%
    12:00 +20°C° 0 mm 3 m/S 766 mmHg 46%
    13:00 +20°C° 0 mm 3 m/S 766 mmHg 45%
    14:00 +20°C° 0 mm 3 m/S 766 mmHg 49%
    15:00 +19°C° 0 mm 3 m/S 766 mmHg 52%
    16:00 +19°C° 0 mm 4 m/S 766 mmHg 55%
    17:00 +17°C° 0 mm 3 m/S 766 mmHg 63%
    18:00 +16°C° 0 mm 3 m/S 767 mmHg 70%
    19:00 +13°C° 0 mm 3 m/S 768 mmHg 78%
    20:00 +12°C° 0 mm 3 m/S 768 mmHg 80%
    21:00 +13°C° 0 mm 2 m/S 769 mmHg 83%
    22:00 +12°C° 0 mm 2 m/S 769 mmHg 86%
    23:00 +12°C° 0 mm 2 m/S 769 mmHg 87%
    Mehr zeigen